Wind_Speed
15 15 16 17 18 19 19 20 21 21 22 23 23 23 22 22 22 23 22 21 21 20 20 19 19 19 19 19 20 19 19 20 19 19 19 19 18 18 18 19 19 19 20 20 20 20 19 19 19 19 19 19 18 18 18 17 17 17 17 16 16 17 17 16 17 19 20 20 19 21 21 18 13 9 6 4 3 3 3 5 6 6 5 3 2
13 17 20 20 19 20 21 21 22 24 25 25 26 26 25 25 26 25 24 24 24 23 22 22 21 21 21 21 20 20 20 21 21 20 20 20 20 20 20 19 20 20 20 20 20 20 19 19 19 18 18 18 17 16 16 16 15 15 16 16 14 14 15 14 14 13 12 12 13 15 16 11 4 3 3 5 3 1 4 5 5 5 4 2 1
10 14 18 20 21 21 22 23 24 26 26 26 27 28 28 28 29 28 27 27 27 26 26 25 24 23 23 23 22 23 22 22 22 22 22 23 22 21 21 21 21 20 20 20 20 20 20 19 19 18 18 18 17 16 15 14 14 14 14 14 13 13 13 10 9 9 9 12 10 6 6 5 1 1 2 4 3 2 5 5 4 4 3 1 1
9 11 14 18 20 21 24 26 26 27 28 29 30 30 31 32 32 31 30 30 30 29 29 28 26 25 26 26 25 25 26 25 25 26 26 26 25 23 23 23 22 21 21 21 21 20 20 19 18 18 18 18 17 16 15 14 13 13 12 11 11 12 11 8 8 8 8 7 5 3 3 3 2 3 5 7 6 4 6 4 2 1 0 1 2
10 10 13 15 18 21 24 26 27 28 31 32 32 32 33 34 34 33 33 33 33 33 32 30 29 29 28 27 27 27 29 28 29 32 32 30 28 27 26 24 23 23 22 22 22 21 21 19 18 18 18 17 17 17 15 14 13 12 12 11 9 9 9 8 9 9 6 2 2 3 3 2 3 4 8 7 4 5 4 3 2 2 4 5 6
10 13 15 16 20 22 24 25 27 30 33 33 32 33 34 35 35 35 36 36 37 37 35 33 32 32 31 30 30 29 30 32 35 37 36 32 30 28 26 25 25 25 24 23 23 22 22 21 19 19 18 17 17 17 15 14 13 12 11 11 9 8 8 9 9 10 8 4 4 4 3 3 3 5 5 3 3 5 7 5 3 6 8 9 10
9 13 16 19 20 20 24 27 27 29 33 32 32 33 35 36 36 37 38 39 39 40 38 37 35 36 35 35 34 33 33 37 40 38 36 32 30 29 28 27 27 26 26 24 24 23 23 22 20 19 19 18 17 17 16 14 13 12 12 11 10 9 9 9 9 10 9 5 5 6 7 6 5 3 2 2 5 7 7 8 8 10 11 13 13
7 9 12 17 20 21 25 28 27 29 32 31 32 33 34 36 37 38 39 40 41 42 41 40 39 39 39 37 37 38 39 42 42 37 35 33 31 31 30 30 29 28 27 26 24 24 24 23 22 20 20 18 17 17 16 15 13 12 12 12 11 9 9 9 8 8 7 7 7 7 8 8 7 6 6 5 3 4 7 12 15 16 17 14 11
7 8 11 16 20 21 24 26 28 30 31 30 31 33 34 35 36 37 38 40 41 42 42 42 41 41 39 38 40 42 42 44 43 38 37 35 34 34 33 32 31 30 29 27 26 25 25 24 23 21 21 19 18 18 16 15 14 13 13 12 12 10 9 8 8 7 7 8 9 8 8 9 9 8 8 8 6 5 5 6 10 18 18 13 11
5 9 14 18 20 21 21 23 28 31 29 29 31 33 34 34 35 36 38 40 41 41 41 42 41 40 40 40 42 44 44 43 40 38 38 37 36 37 36 35 34 32 31 29 28 27 26 25 23 22 21 19 19 19 17 16 15 14 13 12 12 11 10 9 8 7 8 9 9 8 8 8 8 7 5 5 5 6 5 4 7 11 12 15 18
4 7 13 18 20 20 19 21 26 28 27 28 30 32 32 32 33 35 38 39 40 40 39 40 40 40 41 42 43 45 45 41 37 38 39 36 36 39 38 37 36 35 33 31 29 28 26 25 24 22 21 20 20 19 18 16 15 14 13 12 12 11 10 10 9 9 9 10 10 9 9 7 6 6 6 6 5 5 6 5 6 9 12 18 19
4 5 9 14 17 19 17 18 22 24 25 26 28 29 29 30 31 33 36 38 39 39 38 39 39 39 41 42 43 44 42 38 36 38 38 35 36 38 36 37 37 36 34 32 30 28 26 25 24 22 21 20 20 19 18 17 16 14 13 12 12 11 11 10 10 9 9 10 10 10 10 8 8 9 9 10 8 8 8 6 7 10 10 13 15
5 5 6 9 13 16 16 18 21 22 24 26 27 28 28 29 28 30 34 35 36 36 36 37 38 38 40 41 41 40 38 37 37 39 39 37 36 37 36 36 36 35 34 33 31 29 27 26 25 23 21 20 20 19 18 17 16 15 14 12 12 11 11 11 10 10 9 10 10 10 10 11 11 11 10 11 10 11 10 8 9 10 8 12 16
5 5 5 8 11 14 16 18 20 22 24 26 27 27 27 27 27 28 31 32 32 33 34 34 36 38 39 38 39 38 38 39 39 39 40 39 38 38 37 35 33 33 33 32 30 27 27 26 25 23 21 20 19 18 18 17 17 16 15 13 12 11 11 11 10 10 10 10 10 10 11 12 12 11 11 11 11 11 11 9 9 9 10 13 12
4 4 6 9 12 14 15 17 19 21 23 23 24 25 24 25 25 25 27 29 29 30 31 32 34 35 36 36 37 38 38 39 39 40 40 40 40 38 35 33 31 31 29 27 25 24 24 24 23 22 20 19 18 18 17 16 17 17 16 14 12 11 12 11 11 10 11 11 11 11 11 12 12 12 11 11 10 10 10 10 8 6 6 7 6
4 4 6 10 13 13 14 16 18 19 20 21 22 23 23 23 23 23 24 25 26 27 28 29 30 32 32 33 35 36 37 38 39 40 40 40 39 36 34 33 32 30 27 25 22 20 21 21 22 21 19 18 18 17 16 16 16 17 16 15 13 11 12 12 11 11 12 11 11 12 12 12 12 11 11 11 10 10 10 10 9 6 5 4 4
5 4 6 9 12 14 15 16 18 19 20 21 22 23 24 24 25 25 25 25 26 26 27 28 28 30 31 31 32 34 35 37 38 40 41 40 38 36 35 35 33 31 28 25 21 18 18 19 20 20 19 18 17 16 16 15 15 16 17 16 14 12 12 12 12 12 12 12 12 12 12 12 12 11 12 11 11 12 12 11 10 9 7 5 3
6 6 6 8 11 14 16 17 18 19 20 20 21 22 24 24 25 25 25 26 26 26 26 27 27 29 29 30 31 32 33 35 36 38 39 38 37 36 34 33 32 30 27 23 19 16 15 17 19 19 18 18 17 16 16 15 15 16 17 17 15 13 13 13 13 13 13 12 12 12 12 12 11 11 13 13 13 13 13 12 12 11 11 9 6
4 5 5 8 12 14 15 16 17 19 20 20 21 23 24 25 25 26 26 26 26 27 27 27 26 27 28 29 30 31 31 32 34 35 36 35 36 34 30 29 28 27 25 21 16 14 14 15 17 18 18 18 17 17 16 15 15 15 16 17 16 14 14 14 14 15 14 12 11 11 11 12 12 13 14 14 14 13 13 13 13 12 12 13 12
3 3 4 7 11 14 15 16 16 17 19 20 22 23 24 25 26 27 27 28 28 29 29 28 28 28 28 29 30 30 31 31 32 33 33 33 33 30 28 27 25 24 21 17 14 13 13 14 16 18 18 18 18 17 17 16 16 16 16 17 16 15 14 14 14 15 14 12 12 12 12 13 13 14 15 14 13 13 13 13 13 13 13 14 14
2 3 4 7 11 13 14 14 15 17 18 20 22 22 24 25 26 26 27 28 28 29 29 29 29 28 29 29 30 30 30 30 31 31 32 31 29 27 25 24 21 19 17 13 12 12 13 14 16 18 18 19 19 18 17 17 16 16 16 17 17 16 15 14 14 15 15 14 13 13 13 14 14 14 15 14 14 14 14 15 14 14 15 14 15
3 3 5 8 10 11 12 13 15 17 18 20 21 21 22 24 24 24 25 25 27 28 29 30 29 29 29 29 29 29 28 27 27 29 29 27 24 21 19 17 16 15 13 12 12 12 13 14 15 17 18 19 19 18 18 17 17 16 16 17 17 16 15 14 14 15 16 15 15 14 14 15 14 15 16 15 16 16 15 16 15 14 15 15 15
3 4 6 9 9 9 10 12 14 15 16 18 19 19 20 22 22 22 22 23 24 25 28 30 30 29 30 30 30 29 28 25 23 22 21 18 16 14 13 13 13 13 12 11 12 13 13 14 15 17 18 19 19 18 18 18 17 16 16 17 17 17 16 15 15 16 17 17 16 16 15 16 16 16 17 17 17 17 16 16 16 15 16 16 15
3 5 7 8 8 9 10 11 12 14 15 16 16 17 18 20 20 19 19 21 22 24 26 27 27 28 28 29 30 29 28 26 21 16 13 11 10 9 9 10 11 11 11 12 12 13 13 14 16 17 18 19 19 19 19 19 18 17 17 18 18 17 17 16 17 17 18 18 18 17 17 17 17 18 19 18 18 18 17 16 16 15 15 16 15
4 4 5 6 7 8 9 10 11 11 12 13 14 16 17 18 18 17 17 20 22 23 24 23 23 24 25 26 26 25 24 23 19 13 9 7 6 6 7 8 8 9 11 12 12 13 14 15 16 18 19 20 20 20 20 19 18 18 18 19 18 18 18 18 19 20 20 19 19 19 18 18 18 19 20 20 19 18 17 16 16 16 15 15 14
5 4 3 3 4 6 7 8 9 8 9 12 14 15 16 17 17 16 17 20 22 21 20 19 20 21 22 23 23 22 20 18 15 12 8 6 5 5 6 7 9 11 12 12 13 14 14 16 17 18 19 20 20 20 20 19 18 18 19 19 19 20 20 21 21 21 21 21 20 19 19 18 19 20 20 19 18 17 16 16 17 16 16 16 16
4 3 2 1 2 3 5 6 6 7 10 13 15 15 16 16 16 15 16 19 20 19 17 17 18 19 20 20 20 19 17 16 13 11 9 8 7 8 9 10 11 11 12 13 13 14 15 16 17 18 19 20 20 20 19 19 18 19 19 20 21 22 23 23 23 23 22 21 19 18 18 17 17 18 18 18 17 16 17 17 17 17 17 18 18
3 2 1 0 1 2 4 5 7 9 11 14 15 15 15 16 15 14 14 17 18 17 15 16 17 18 19 20 19 18 17 16 14 13 11 11 11 11 11 11 11 12 12 13 14 15 16 16 17 18 19 20 19 19 18 18 19 20 20 22 23 24 24 23 22 22 20 18 17 16 16 16 16 17 17 16 16 16 17 18 18 18 18 19 19
3 2 1 1 1 1 3 6 8 10 12 14 15 15 15 15 14 12 12 14 15 14 14 15 16 17 18 19 18 17 17 16 15 14 14 13 13 12 12 12 12 12 12 13 14 14 15 16 17 18 18 19 18 18 18 19 20 21 22 24 24 24 24 23 22 21 19 18 17 16 16 16 16 16 16 16 16 17 18 19 19 19 20 20 20
4 3 2 2 2 1 3 6 8 9 11 13 13 14 15 14 12 11 12 13 13 12 13 14 15 15 16 16 17 17 16 16 15 15 14 14 13 13 12 12 12 12 12 12 13 14 15 16 17 17 18 18 18 19 19 20 20 21 23 25 25 25 25 24 23 22 21 20 19 19 18 18 17 18 18 18 18 18 19 20 21 21 22 21 21
4 4 3 3 1 2 3 4 5 7 10 11 11 12 13 13 12 11 12 12 11 12 12 13 13 14 14 15 15 16 15 15 15 14 14 14 13 13 13 12 12 12 12 13 14 15 15 16 17 18 18 19 19 20 20 20 20 22 24 24 24 25 25 25 24 24 23 23 22 21 20 19 19 20 20 19 19 19 20 21 22 22 23 23 24
4 4 3 2 2 2 2 3 4 7 9 9 10 12 13 12 12 11 11 11 11 12 12 12 13 13 13 13 14 14 14 14 14 14 14 13 13 13 13 13 13 13 13 14 14 15 16 16 17 18 19 20 20 21 20 20 22 23 23 24 24 23 23 23 23 23 24 23 23 22 21 20 20 19 19 19 19 21 22 22 23 23 24 24 25
4 4 3 3 4 2 2 3 4 7 7 8 9 10 11 11 10 11 11 11 11 12 12 12 12 12 13 13 13 13 13 13 13 13 13 13 14 14 14 14 14 14 14 15 15 16 17 17 18 19 20 20 21 22 21 21 23 24 24 25 25 24 23 22 21 21 22 21 20 20 20 19 18 17 17 19 21 23 24 25 25 25 25 25 25
4 4 4 5 5 1 3 3 5 6 6 7 8 8 9 9 10 12 13 12 11 11 11 11 12 12 13 13 13 13 12 12 12 12 13 13 14 15 15 15 15 16 16 16 17 17 18 18 19 20 21 21 22 23 22 22 23 24 24 25 25 22 19 18 18 19 19 18 17 18 18 19 18 19 20 22 24 26 27 28 29 29 30 30 29
4 4 5 6 3 2 3 3 5 5 4 6 7 7 9 10 11 12 12 10 10 10 10 11 11 12 12 13 13 13 12 12 13 13 13 13 14 15 15 16 16 17 17 17 17 18 18 19 20 21 22 23 24 24 23 22 23 23 23 24 24 22 19 18 18 18 19 18 18 19 20 22 22 24 24 23 24 26 27 28 29 29 30 30 30
5 6 6 5 1 2 3 3 4 4 3 5 6 8 10 11 10 10 10 9 10 10 11 11 12 12 13 13 13 13 13 13 13 13 14 14 14 14 15 15 16 17 17 18 18 19 19 20 21 21 22 24 25 24 22 22 22 22 23 24 24 24 23 21 20 18 17 17 17 19 21 22 23 25 25 23 22 24 25 26 27 28 29 29 29
7 7 6 3 1 3 2 3 4 3 3 4 7 9 11 12 10 9 9 10 11 11 12 13 13 14 14 14 14 14 14 14 14 14 15 15 14 15 14 15 16 17 17 18 19 19 20 21 21 22 23 25 26 25 23 22 22 22 23 24 24 23 22 21 19 18 18 18 19 20 22 24 26 27 26 24 23 23 25 27 28 28 28 28 28
8 7 4 2 2 2 2 3 3 3 3 5 8 10 12 11 9 9 9 10 11 12 13 14 15 15 15 15 15 16 16 16 16 15 15 15 15 15 15 15 16 17 18 18 19 19 20 21 22 23 24 25 26 26 24 22 22 22 22 24 24 24 23 23 22 21 21 22 22 23 23 24 26 26 24 23 23 24 26 28 27 26 26 27 28
8 6 3 2 2 2 2 3 3 3 4 6 8 10 11 10 8 9 10 11 12 13 14 15 16 16 16 16 16 17 17 17 17 17 16 16 16 16 16 16 16 17 19 19 19 20 22 23 23 24 24 25 27 28 26 24 23 23 23 23 24 24 24 23 22 22 23 23 23 24 24 23 24 24 23 24 24 25 28 28 27 26 26 28 28
9 5 2 2 2 2 3 3 3 3 5 7 9 11 10 9 9 9 10 11 12 14 15 16 17 17 18 18 17 17 18 18 18 18 17 17 17 17 17 17 17 18 19 21 21 21 23 24 24 25 25 26 27 28 28 26 25 24 23 22 23 24 23 23 23 23 24 24 24 25 25 23 23 23 23 24 25 26 26 27 27 26 26 27 28
8 4 2 2 3 3 3 3 3 5 7 9 10 11 10 9 10 10 11 12 13 15 16 17 18 18 18 19 18 18 18 18 18 19 19 19 18 18 18 19 19 20 21 22 23 23 24 26 26 26 26 27 27 28 28 27 24 23 23 22 22 23 22 23 24 23 24 25 25 25 25 23 21 22 23 25 27 27 26 26 26 25 26 28 27
7 3 3 3 3 3 4 4 5 7 9 9 10 10 10 10 11 12 12 13 14 16 17 18 19 19 19 19 18 18 18 19 19 19 20 21 20 19 20 20 20 21 22 24 24 24 25 27 27 27 28 27 27 26 26 26 23 22 22 22 22 23 22 22 23 23 23 24 25 25 25 23 22 22 24 25 25 25 25 25 26 25 24 21 17
6 3 3 4 3 3 4 6 6 8 8 8 9 10 10 11 13 13 13 15 15 16 17 18 18 18 18 18 18 18 18 18 19 19 20 21 22 21 21 21 21 22 23 25 26 25 25 26 28 29 29 28 27 25 24 24 22 20 20 21 22 22 22 22 23 23 22 22 23 23 22 21 19 21 24 25 25 26 26 25 23 20 14 10 9
5 4 4 4 5 5 5 6 7 8 8 7 9 10 12 13 14 14 14 15 16 16 17 17 18 18 19 19 19 19 19 18 19 19 20 21 22 21 21 21 21 21 22 24 26 25 24 25 28 30 30 29 27 25 24 22 21 20 19 19 21 22 22 22 22 22 21 21 21 21 22 22 22 24 26 27 27 26 22 18 16 13 8 9 11
5 5 5 5 6 6 6 8 9 8 7 7 8 10 13 15 15 14 14 15 15 16 17 18 18 19 19 20 20 20 20 19 19 19 19 21 21 21 22 22 21 22 22 24 25 25 24 25 27 29 32 31 28 27 25 22 20 20 19 19 21 22 23 23 23 24 24 25 25 25 26 27 27 27 27 26 26 25 21 19 18 14 13 15 17
6 6 6 7 7 7 8 10 11 9 8 8 8 10 13 15 14 13 13 14 14 16 17 18 19 19 19 20 21 22 21 21 20 19 19 20 20 21 22 22 22 23 23 24 25 25 24 24 26 28 31 31 29 28 26 23 21 22 23 23 22 22 23 24 25 26 27 27 26 25 25 25 25 26 26 26 26 25 23 22 20 17 18 20 20
7 7 7 8 8 8 9 11 13 11 9 9 10 11 12 13 13 13 13 14 14 15 17 18 19 20 21 21 22 23 22 22 21 20 20 21 21 21 22 23 23 23 24 24 24 24 24 24 25 27 29 30 30 29 28 27 26 26 26 25 24 24 25 25 26 26 25 25 25 24 24 24 24 25 25 25 24 23 22 21 21 21 22 22 21
8 8 8 9 10 10 10 12 14 13 10 10 12 12 11 11 12 12 12 14 15 16 17 19 20 21 22 22 23 23 23 23 23 22 23 23 22 22 22 24 24 23 24 25 24 24 25 25 26 27 28 28 29 30 31 30 28 27 26 26 26 26 26 26 26 25 25 25 25 25 25 25 25 25 26 26 26 25 25 25 25 25 25 24 23
9 9 10 10 11 12 12 14 15 13 12 13 13 12 11 10 11 11 12 15 17 17 19 21 21 22 23 24 24 24 23 22 23 24 24 25 24 23 23 25 26 24 23 24 26 27 28 28 28 29 29 28 29 31 30 28 26 26 27 28 29 29 29 28 28 26 25 26 26 26 26 26 26 26 27 27 27 27 27 27 27 26 26 25 23
9 9 10 11 12 13 13 15 15 14 13 14 14 14 12 10 10 11 13 15 17 19 21 22 23 23 24 24 25 25 23 22 22 24 26 27 28 26 23 22 24 25 24 23 25 28 30 29 29 30 30 28 29 30 28 24 25 26 27 27 28 28 28 27 25 23 24 26 27 25 25 26 26 26 26 27 27 27 27 27 27 26 24 23 22
9 10 11 13 14 14 14 16 16 15 15 15 16 15 13 11 10 11 13 14 16 18 21 23 24 24 25 25 26 25 23 22 23 23 25 27 31 32 29 24 22 22 22 22 24 26 27 27 27 28 27 25 25 25 24 24 25 25 24 24 24 25 27 28 27 26 26 26 25 23 22 22 23 24 24 25 26 25 24 25 24 23 22 22 22
Wind_Direction
266 271 267 261 255 254 255 255 255 254 253 250 248 247 246 246 246 246 246 245 245 245 247 249 251 254 256 258 261 262 264 266 269 272 276 278 280 284 289 293 296 298 300 300 300 300 301 302 302 303 304 304 305 306 308 309 308 307 306 307 308 308 309 309 309 312 314 317 315 311 313 315 304 279 256 220 203 222 207 201 200 198 203 205 218
273 271 268 264 258 254 256 256 255 255 254 252 250 250 249 248 249 249 249 248 249 249 249 252 253 255 257 258 259 260 261 263 266 269 271 272 275 278 283 287 289 292 294 294 294 295 296 297 298 300 300 301 302 303 305 305 304 304 304 306 307 309 313 315 316 322 329 332 324 315 322 327 283 227 217 188 179 227 185 182 188 187 187 185 187
271 268 265 263 260 256 255 254 255 256 257 255 252 252 250 248 249 250 249 249 251 252 253 256 258 259 261 261 261 262 262 262 263 265 267 268 271 274 278 281 283 286 288 288 289 290 291 292 293 295 297 299 300 300 302 302 302 302 303 307 309 309 312 313 317 329 336 333 325 304 324 349 290 262 263 222 249 269 196 179 178 176 168 165 213
268 269 265 263 261 255 252 253 255 256 256 256 253 251 250 250 250 250 250 251 252 254 255 258 260 260 261 262 262 263 263 263 263 264 264 265 268 270 273 277 279 281 282 283 284 284 284 285 287 290 292 293 294 296 298 299 300 300 300 305 311 313 314 308 303 318 338 341 329 289 320 345 279 321 341 304 279 224 187 180 181 182 221 314 314
261 266 265 260 258 256 255 255 255 255 255 256 255 254 253 254 254 254 254 254 254 256 257 258 259 259 259 260 259 259 260 260 259 261 260 261 264 267 271 273 274 275 277 278 278 278 278 279 281 284 285 287 288 289 290 292 294 296 296 299 307 313 313 306 298 308 325 324 267 280 324 307 255 332 342 311 245 190 220 250 238 307 319 325 330
246 256 263 262 259 259 259 257 254 254 257 259 260 259 258 259 259 258 258 257 258 258 258 258 257 258 257 256 255 254 256 257 258 261 262 261 265 268 268 267 267 269 271 271 272 272 272 273 275 277 279 280 282 283 282 284 286 286 287 290 295 297 300 302 296 298 300 276 230 224 246 259 281 335 341 302 261 263 258 234 244 312 311 319 328
240 250 258 260 261 260 260 260 255 256 264 265 264 263 263 263 263 261 261 261 261 261 260 258 257 257 256 255 255 254 255 260 263 264 265 264 265 265 263 262 263 264 264 264 265 266 266 267 268 270 272 273 274 275 276 279 280 281 281 283 287 285 287 295 297 300 297 275 243 239 251 259 270 301 288 252 302 293 253 245 280 301 305 316 321
241 251 255 256 258 257 259 264 264 266 271 270 267 267 267 267 267 265 264 264 264 262 261 259 257 256 255 254 256 256 256 262 265 265 265 264 263 262 261 261 261 260 261 261 260 260 260 260 262 263 265 265 266 267 269 272 275 278 279 280 281 278 278 283 287 296 295 282 283 278 266 264 266 266 255 248 271 298 278 277 286 294 303 314 313
240 249 259 260 261 263 266 272 276 276 277 276 274 275 273 272 270 268 267 267 267 264 262 260 258 257 255 254 256 258 259 262 264 264 263 263 260 260 259 258 258 258 258 258 256 255 255 256 257 258 258 257 257 258 259 263 268 272 277 279 279 275 269 268 270 277 280 284 296 300 286 281 283 277 264 250 239 255 277 287 302 307 308 306 303
250 254 265 270 273 276 279 282 284 284 284 283 284 282 279 277 274 272 271 271 270 267 264 262 260 257 255 254 255 258 259 261 262 262 262 261 259 258 257 256 256 256 256 255 253 251 251 252 253 254 255 253 250 251 252 255 260 266 273 276 277 274 266 259 256 256 262 272 284 295 296 297 297 285 264 256 251 256 269 286 310 316 311 300 305
281 276 277 281 285 288 286 285 290 296 296 293 293 291 287 284 280 277 277 276 274 271 268 266 264 260 257 256 256 258 260 260 260 261 262 260 259 258 257 256 256 255 254 252 249 247 247 249 251 253 253 250 248 249 250 252 256 261 267 272 273 273 268 261 252 248 254 265 269 277 286 288 282 271 270 287 286 272 281 286 293 304 296 291 301
299 294 289 293 297 299 299 297 302 308 309 308 307 304 300 295 289 284 284 284 281 276 272 270 268 264 262 261 260 261 263 263 263 264 265 263 262 262 259 257 255 253 250 247 244 243 243 245 247 248 249 248 249 251 252 253 254 258 262 267 268 266 265 263 260 257 255 259 263 269 276 271 262 266 275 283 281 277 283 283 290 302 292 282 295
293 287 287 292 293 299 306 309 312 316 319 321 321 318 313 308 301 292 292 295 290 284 279 275 273 270 268 266 266 267 268 268 268 268 269 268 267 266 262 259 256 252 247 244 243 241 241 242 242 243 245 247 251 254 255 257 258 259 260 261 261 260 261 263 264 264 259 260 264 266 268 268 268 271 274 274 274 278 283 284 289 295 286 285 296
268 270 277 281 286 297 306 312 318 323 326 329 329 329 325 319 313 303 302 305 301 294 288 283 280 278 275 272 271 271 271 271 270 269 270 270 268 267 265 263 260 257 252 249 248 245 243 242 242 242 243 246 250 253 256 261 264 264 262 258 255 254 256 259 263 266 265 266 268 267 267 270 271 270 270 269 271 275 279 284 296 297 284 283 290
271 270 275 280 290 302 312 320 328 332 337 341 342 343 339 334 329 320 315 317 314 307 301 294 290 287 283 279 277 275 274 273 272 272 272 271 270 269 268 267 265 262 260 257 254 251 248 246 244 243 243 243 246 249 255 261 266 269 268 261 254 251 251 254 258 263 268 271 271 269 268 269 269 269 269 268 268 269 271 279 295 311 291 277 282
301 289 281 290 307 324 334 341 349 354 359 2 4 4 1 357 353 346 340 337 333 327 320 312 306 300 294 289 285 282 279 277 276 275 275 273 272 271 268 267 264 262 260 257 255 255 255 252 248 247 245 244 246 250 255 260 266 271 272 266 258 253 251 253 255 260 267 272 272 270 269 269 269 269 266 265 265 263 265 274 281 286 282 287 303
307 294 292 309 331 354 8 13 16 18 20 20 19 18 15 12 8 4 359 355 350 344 337 330 323 315 309 303 297 291 286 282 280 279 279 276 273 270 267 265 262 258 254 251 251 255 255 252 249 249 249 250 251 253 257 260 265 271 272 269 264 259 257 259 260 262 266 271 271 269 267 269 269 267 265 264 266 266 267 270 270 264 261 271 301
302 304 317 342 9 25 29 31 32 30 29 27 24 19 16 14 10 6 2 358 353 349 343 338 333 325 319 313 307 301 295 289 285 283 282 278 274 270 267 264 260 255 250 248 249 254 255 252 249 249 250 253 255 256 259 261 265 269 271 270 268 265 263 265 267 269 270 270 268 266 264 264 263 263 265 266 266 267 266 265 266 264 259 255 260
310 325 351 23 37 38 37 38 35 31 27 23 19 15 12 9 6 3 359 354 351 347 343 339 335 329 323 319 314 308 302 296 292 289 284 280 275 271 266 262 258 252 246 244 249 256 258 253 250 249 251 254 256 256 258 260 264 268 270 270 269 267 266 269 274 276 275 270 264 262 261 261 263 264 267 270 268 266 265 265 265 262 258 256 257
334 2 29 43 45 44 44 41 34 28 23 19 15 13 11 7 4 1 356 353 351 349 346 341 337 333 327 323 320 315 310 305 300 295 289 283 278 271 264 259 253 246 241 242 253 260 259 256 254 253 254 254 254 254 256 259 263 266 269 270 270 268 268 272 276 278 276 270 263 262 262 264 268 270 271 271 269 265 264 263 264 264 261 259 259
31 57 52 49 51 50 44 36 29 25 21 18 15 12 9 7 3 1 358 357 357 357 354 349 345 340 335 331 326 321 316 311 306 301 295 288 280 271 263 254 245 239 239 247 260 263 263 261 258 255 254 253 252 253 255 259 261 265 269 270 270 269 270 273 274 274 273 269 266 266 267 270 271 272 272 272 269 267 266 266 266 266 263 260 258
83 77 67 63 60 49 37 30 26 24 19 16 14 12 9 6 4 3 3 5 5 4 2 359 356 353 349 345 340 335 329 319 312 306 299 291 280 268 257 246 238 237 244 256 265 266 265 262 257 255 253 251 252 253 256 258 260 264 268 270 271 271 272 272 270 269 269 270 271 271 271 272 272 272 272 272 272 270 270 269 268 265 262 259 256
122 97 82 75 64 44 33 30 26 23 20 17 14 11 8 4 3 3 6 9 8 5 3 2 3 3 1 359 357 353 348 340 328 315 301 287 274 262 252 244 238 239 251 263 267 266 262 259 256 254 252 251 252 254 257 259 261 265 270 272 273 273 271 271 269 267 267 270 272 272 271 273 274 274 274 274 274 273 271 271 269 266 263 261 258
126 100 86 73 55 39 33 28 24 21 18 15 11 7 4 2 360 1 5 7 6 4 3 2 5 8 9 9 6 2 358 354 346 331 309 290 278 266 252 240 235 244 260 266 265 263 259 256 254 253 253 253 254 256 258 260 262 268 273 273 273 272 271 271 269 267 267 269 271 271 271 273 274 273 275 275 274 273 272 271 270 268 266 266 266
104 91 74 59 44 36 33 26 22 19 14 10 6 2 0 358 355 355 1 4 3 1 2 2 5 9 12 13 12 9 4 0 357 348 332 313 294 269 249 243 250 266 271 268 267 263 258 256 255 255 255 254 256 258 258 260 265 271 273 273 273 273 273 272 270 269 268 268 269 270 271 273 273 271 272 273 272 271 271 270 269 269 268 269 268
103 93 69 57 49 41 36 26 18 14 11 6 0 357 355 353 349 349 357 1 359 358 1 4 6 9 10 10 11 10 7 4 2 358 346 328 305 286 281 283 285 283 279 275 271 264 259 258 258 257 256 256 257 258 258 261 267 270 272 273 275 276 276 274 272 271 270 269 269 271 273 273 270 267 268 268 268 267 267 266 266 268 270 271 268
113 111 101 97 86 57 35 21 11 10 9 3 357 354 349 346 344 344 352 356 354 355 1 6 7 8 8 6 5 4 2 0 358 353 343 331 319 311 306 301 295 289 283 277 271 264 261 260 259 259 258 258 257 257 258 263 267 270 273 275 277 278 277 275 274 272 272 272 272 271 272 271 267 265 265 265 265 264 264 265 266 268 271 271 269
128 139 144 186 95 55 20 9 7 7 5 359 354 350 346 345 343 341 346 350 351 356 4 6 6 6 5 4 3 360 358 356 351 346 340 333 325 318 312 305 298 292 284 277 271 267 263 261 261 261 258 256 256 256 260 266 270 273 276 278 280 279 277 276 275 275 275 273 272 271 271 269 267 265 264 264 264 265 266 267 268 270 271 270 268
166 185 191 207 144 43 9 8 7 6 1 355 351 348 345 345 344 340 341 346 349 357 4 3 2 2 1 360 360 360 359 358 355 352 348 341 335 328 321 313 305 295 287 279 272 268 265 263 263 260 257 256 257 261 267 272 275 278 279 281 281 280 277 275 275 277 278 275 273 273 272 271 268 266 265 266 267 267 268 269 271 272 270 267 265
194 212 214 201 177 75 19 12 8 2 358 353 349 346 344 344 343 340 339 344 350 357 360 360 359 358 356 355 357 359 1 0 359 357 354 349 342 336 328 319 309 297 288 280 274 270 268 266 264 261 260 260 263 268 273 274 274 276 278 279 278 276 275 274 274 276 278 278 277 275 274 274 272 269 267 266 266 267 267 267 269 272 270 266 262
210 218 213 206 174 73 26 11 4 357 355 353 348 346 348 348 345 342 341 345 353 356 355 355 356 355 354 355 357 358 359 359 359 356 354 350 344 338 331 322 312 302 293 285 279 276 272 269 266 263 263 264 267 272 274 273 272 273 276 276 274 273 273 272 271 271 273 275 276 275 274 274 273 271 268 264 262 264 264 260 260 262 262 262 259
218 219 215 212 176 123 30 1 360 355 354 354 352 352 354 353 350 347 347 348 351 354 352 351 353 354 356 357 356 355 355 354 354 352 350 347 341 336 330 321 313 306 297 289 284 279 275 272 269 267 267 268 271 274 275 274 275 278 279 277 275 273 273 271 269 268 268 268 268 269 271 273 274 272 267 262 260 262 263 258 256 257 258 258 258
212 213 212 193 167 137 14 354 354 351 351 354 357 357 357 355 348 342 343 344 345 348 348 349 352 355 357 357 354 351 349 348 347 345 341 339 335 330 326 320 312 304 296 291 287 282 278 276 273 272 273 273 276 278 278 278 280 283 282 280 279 278 275 273 271 268 267 264 261 262 262 262 264 263 260 260 261 263 264 261 259 260 259 257 258
206 206 196 174 157 85 357 344 341 341 344 351 355 357 353 348 338 331 334 338 340 344 347 350 355 356 355 353 350 346 344 340 338 335 330 327 324 321 319 315 311 304 298 293 289 285 282 280 278 278 278 278 280 283 283 282 284 285 284 284 286 286 282 276 273 270 268 267 265 261 256 254 257 260 263 266 266 264 263 262 261 261 260 260 260
205 198 180 166 152 7 338 319 327 331 333 342 350 351 343 337 330 327 331 338 341 344 349 351 354 354 352 349 345 340 337 333 330 326 321 317 314 311 310 308 307 304 300 297 293 289 287 285 283 283 283 282 284 286 286 285 287 288 288 288 291 294 293 288 283 278 274 271 269 263 261 262 263 265 269 270 269 266 264 264 263 262 263 264 263
192 181 168 162 166 330 313 297 315 320 317 333 343 342 337 334 331 331 336 341 343 346 350 350 350 349 347 343 339 334 329 327 324 320 315 312 309 306 303 302 301 298 297 296 294 292 290 289 288 286 285 285 286 287 286 286 288 289 289 291 293 295 295 293 289 282 274 269 264 260 260 263 265 269 273 272 266 264 264 265 265 266 267 268 269
173 167 161 159 255 308 295 293 307 301 298 326 334 333 334 333 333 338 340 341 344 347 347 344 342 340 339 336 332 328 323 321 319 315 312 309 306 302 301 299 297 294 293 292 292 291 290 289 288 286 285 285 286 288 288 286 287 288 289 291 292 292 291 290 286 279 273 269 267 263 262 265 267 270 272 268 261 258 258 259 261 263 265 265 267
162 164 167 183 278 300 293 296 302 285 293 324 328 328 331 330 331 336 338 339 343 344 341 337 334 332 330 327 324 321 318 317 314 312 309 306 302 300 298 296 294 293 292 291 291 290 288 287 286 285 286 286 286 288 288 286 286 288 288 289 290 289 287 284 281 278 275 274 273 269 266 267 268 268 266 263 260 257 255 255 256 258 258 258 261
171 180 198 225 273 294 285 293 297 280 298 318 320 322 327 327 327 331 332 335 337 335 332 329 326 324 321 319 318 315 313 313 311 310 308 305 302 299 296 294 292 290 290 290 290 289 287 286 285 285 285 285 285 287 288 287 286 287 287 286 286 285 283 281 279 277 276 276 274 272 271 268 265 266 265 264 262 257 253 252 253 253 253 254 258
170 182 207 222 270 290 279 285 290 286 301 311 312 317 323 324 324 325 325 328 327 325 324 321 320 320 318 316 315 313 311 310 309 308 308 305 302 300 298 295 292 290 290 289 288 287 287 286 286 286 285 284 284 286 289 289 288 285 284 284 282 280 278 278 277 275 275 275 273 273 275 273 267 265 264 264 264 261 257 256 254 251 250 255 260
178 195 221 239 279 290 270 268 281 294 304 308 309 315 322 322 324 325 323 323 321 320 320 319 319 320 319 317 315 312 309 308 306 307 306 303 302 300 299 298 296 294 293 291 289 289 288 287 287 286 286 285 285 287 289 290 288 284 283 281 279 277 276 276 276 274 272 271 271 273 277 279 274 268 264 264 266 267 267 265 261 257 260 266 265
184 200 213 238 272 274 256 262 281 296 303 306 307 313 320 321 322 324 323 321 319 319 320 319 320 321 320 319 316 312 309 307 305 305 304 301 300 300 298 297 297 295 294 292 291 291 289 289 289 288 287 287 287 288 289 290 289 285 281 279 276 274 273 272 270 269 268 268 270 273 276 279 276 268 265 267 268 268 269 269 269 271 272 267 253
197 220 226 242 265 268 263 273 287 296 301 302 304 309 315 316 318 322 321 317 317 319 319 319 322 323 322 321 319 315 313 310 308 307 304 301 301 300 298 298 296 296 295 293 292 292 291 291 290 290 289 289 289 290 290 290 290 287 281 278 275 274 272 271 270 271 272 272 271 270 270 271 269 265 266 269 268 269 270 271 275 279 271 237 212
211 232 238 248 265 276 280 283 290 298 300 295 297 304 307 308 313 319 318 316 317 318 318 319 322 323 323 322 320 318 317 315 312 311 307 304 304 303 300 299 298 297 296 293 292 293 291 289 290 291 292 292 292 292 292 291 291 289 283 278 277 276 276 276 276 276 275 273 270 267 266 266 267 267 268 270 271 273 273 273 278 281 263 242 254
222 233 240 250 264 279 287 290 294 300 296 288 290 296 298 302 312 317 314 314 316 316 317 319 321 322 323 322 320 318 317 315 314 312 310 308 307 306 304 301 300 298 294 291 291 291 289 287 287 288 290 293 295 295 295 293 291 288 286 283 281 280 278 279 279 278 277 277 276 274 274 274 274 273 273 275 276 276 276 276 279 275 262 262 269
227 236 245 251 260 274 283 290 298 301 295 288 285 288 294 301 309 312 310 310 312 312 314 317 318 319 322 322 320 318 316 315 314 313 311 309 307 306 304 301 299 296 292 288 287 287 286 285 283 284 287 292 296 297 296 295 293 292 291 290 287 283 279 277 277 277 277 277 277 276 276 276 275 274 275 276 276 275 274 274 273 266 259 261 266
233 240 244 243 250 265 277 287 295 299 300 291 283 286 295 300 303 307 307 305 306 308 310 311 313 316 320 322 322 320 317 316 316 315 313 310 309 307 303 298 295 293 290 287 284 282 281 279 279 282 286 290 293 295 295 295 297 296 295 293 289 285 282 281 279 277 276 277 278 278 278 276 275 274 272 271 270 268 267 266 263 260 260 262 264
238 240 239 237 245 260 273 283 289 297 302 293 285 290 297 296 297 303 305 302 302 304 305 306 309 313 316 320 321 319 317 315 315 315 313 311 311 309 303 297 295 291 287 284 282 279 277 277 277 280 283 285 286 288 290 295 297 296 294 291 287 285 284 282 279 278 280 281 281 279 276 273 272 271 269 267 266 265 264 264 262 260 259 259 261
237 239 240 240 247 259 272 282 288 296 301 295 289 292 294 291 293 301 303 300 301 303 302 303 306 309 312 316 319 317 315 313 312 313 313 311 310 308 304 302 302 298 291 286 283 279 279 279 278 277 276 273 274 280 289 295 294 290 287 284 282 282 281 279 279 281 281 278 274 271 269 268 268 268 267 266 266 265 265 264 263 259 256 255 256
238 240 240 241 248 257 270 281 287 294 297 296 293 292 293 290 289 295 300 299 301 302 302 303 306 307 309 313 315 314 313 311 309 310 312 312 312 310 303 294 294 295 292 285 277 275 278 280 277 276 276 273 275 284 293 290 283 281 281 280 279 280 277 275 276 277 271 265 262 260 258 258 259 260 260 261 262 262 262 261 259 257 253 252 252
241 239 239 243 248 255 267 278 287 293 296 296 294 292 293 290 285 289 297 299 300 302 301 303 306 307 308 310 311 310 309 308 307 308 310 310 311 312 308 299 291 290 288 283 277 276 279 281 279 281 284 285 285 289 289 283 281 284 285 282 282 281 276 273 274 275 270 262 256 254 254 253 252 252 253 255 257 258 257 257 257 255 252 250 250
Height
868 868 868 868 868 869 868 868 869 868 868 869 868 868 869 869 868 868 869 869 869 868 868 868 868 867 867 866 865 865 865 864 864 863 863 862 861 861 860 860 859 859 858 857 856 855 855 854 854 854 853 853 852 852 851 851 850 849 848 848 847 846 845 845 844 842 839 837 835 833 834 834 833 833 833 833 833 833 833 833 833 833 833 834 834
866 866 865 865 865 865 866 866 866 866 866 866 866 866 867 867 866 866 867 866 866 866 866 865 865 865 864 864 863 863 862 861 861 860 859 859 858 858 857 857 856 856 855 855 854 853 852 852 851 851 851 851 850 850 850 849 849 848 847 846 846 845 844 844 843 842 841 839 837 833 831 831 831 831 832 832 833 833 832 832 832 831 831 831 832
864 863 862 862 862 863 863 864 863 863 863 864 864 864 864 864 863 864 864 864 864 864 863 863 863 863 862 861 861 860 859 859 858 857 856 855 855 854 854 853 853 853 852 852 851 850 850 850 849 849 849 848 848 848 848 848 847 847 846 845 845 844 844 843 843 842 841 840 839 836 833 832 831 830 831 831 831 831 831 831 830 829 830 829 829
861 860 860 860 860 860 860 860 861 861 861 860 861 861 861 860 860 861 861 861 861 861 860 860 860 860 859 858 858 857 856 856 855 853 852 851 851 851 850 850 850 849 849 848 848 848 847 847 847 846 847 846 846 846 846 846 845 845 845 844 844 844 843 843 842 842 842 841 840 838 836 835 832 830 831 830 829 830 829 829 829 828 828 828 827
860 858 857 857 857 857 857 857 858 858 857 856 857 858 857 857 857 858 859 858 858 858 857 858 857 857 856 855 855 854 852 852 851 848 848 848 847 847 847 847 846 846 846 845 845 845 844 844 844 844 844 844 844 844 844 844 843 843 843 843 843 843 842 842 842 842 842 842 841 840 838 835 833 832 832 829 827 828 828 827 827 827 826 826 826
858 856 854 855 854 854 854 855 855 854 853 853 854 855 854 855 855 855 855 855 855 854 855 855 854 853 853 852 851 850 848 847 845 843 843 844 844 844 844 843 843 843 843 842 842 842 841 841 841 841 841 841 841 841 842 842 841 841 841 841 841 842 841 841 841 841 841 841 841 840 839 837 836 835 834 831 827 826 826 826 825 825 824 824 825
854 854 852 852 851 853 852 851 852 852 850 851 852 852 852 852 852 852 852 852 851 851 851 851 850 849 848 848 846 846 844 841 839 839 840 841 841 840 840 840 840 840 839 839 839 838 838 838 838 838 838 839 838 839 839 840 840 840 839 839 839 839 840 840 840 840 840 840 840 840 839 838 838 837 837 835 830 826 824 824 824 823 823 823 823
852 851 850 850 849 850 849 848 850 850 848 850 850 850 850 849 849 849 849 848 848 848 848 847 846 845 844 844 843 841 839 836 836 837 837 838 838 837 837 837 836 836 836 836 836 835 835 835 834 834 835 836 836 836 836 837 838 838 838 838 837 837 837 838 839 839 839 839 839 838 838 837 837 837 837 836 835 831 825 823 823 821 822 822 822
850 850 848 847 847 848 848 848 848 848 848 849 849 848 848 848 847 847 846 845 845 845 844 844 843 842 842 841 839 837 835 834 834 834 834 834 834 833 833 833 832 833 832 832 832 832 832 832 831 831 832 833 833 832 833 834 835 836 836 836 836 836 836 836 836 837 838 838 838 838 837 836 836 835 835 835 835 833 827 824 823 821 820 820 820
848 849 847 846 847 847 848 849 846 846 847 847 847 846 846 846 846 845 844 843 843 842 841 841 840 840 839 837 835 833 832 831 831 830 830 830 830 829 829 829 829 829 828 828 828 828 829 829 829 829 829 831 831 830 831 831 832 832 833 834 834 834 834 834 834 835 836 837 837 837 836 836 835 834 834 834 833 832 829 827 826 825 822 819 819
848 848 847 846 847 846 847 847 845 844 845 845 844 844 844 844 843 842 841 841 840 840 840 839 839 838 836 834 832 830 829 829 829 827 826 827 826 825 825 825 825 824 824 824 825 825 826 827 827 828 829 829 830 829 829 829 829 830 830 831 832 833 833 833 833 833 834 835 836 836 836 836 835 834 833 833 833 832 830 827 826 827 825 820 818
847 848 846 846 845 844 845 844 843 843 842 843 842 842 842 841 841 839 838 839 838 838 838 837 837 836 835 833 831 830 830 830 829 826 826 826 825 824 824 822 821 820 821 821 821 822 823 824 825 826 827 829 830 829 829 828 828 827 827 828 829 830 831 832 831 831 831 832 833 834 834 834 834 834 833 832 832 831 830 827 826 826 824 820 819
847 847 846 846 844 843 843 842 842 842 841 842 841 841 841 839 839 838 836 836 837 836 836 835 834 834 833 832 831 831 831 830 829 827 826 826 824 823 822 820 819 819 818 817 818 819 820 820 821 822 824 827 829 830 829 829 828 827 825 825 826 827 828 829 830 830 830 830 830 831 832 832 832 832 832 831 831 830 829 827 825 825 823 819 819
846 847 846 845 844 843 842 842 842 842 841 842 841 840 840 838 838 837 835 835 835 835 834 833 832 831 830 830 829 829 828 827 826 824 823 823 822 821 820 820 820 819 818 817 818 818 818 818 819 820 821 823 826 828 829 829 829 828 825 823 822 823 825 826 827 828 828 828 828 829 829 830 830 830 830 830 829 829 828 827 825 824 822 818 818
844 846 846 844 844 843 843 843 842 843 842 842 841 840 839 838 837 836 835 834 834 833 832 831 830 829 828 828 827 826 825 823 822 821 820 819 819 818 818 818 819 819 819 820 820 820 820 820 819 819 820 821 822 824 826 828 829 829 828 824 821 821 821 822 824 825 826 826 827 827 827 827 828 828 828 828 828 827 827 826 825 824 821 817 816
844 845 845 843 844 844 843 844 843 843 843 842 841 840 839 838 837 836 835 834 833 832 831 830 828 827 826 825 824 823 821 820 818 817 816 816 815 815 815 814 814 815 816 818 818 819 820 821 821 821 820 821 821 822 823 825 827 829 829 826 821 820 819 820 821 822 823 824 824 824 825 825 825 826 826 826 826 826 825 825 825 824 823 818 815
844 845 845 844 844 844 844 844 843 843 843 842 842 840 839 838 836 836 834 833 832 831 830 828 827 825 823 822 821 820 818 817 815 813 812 812 811 811 810 809 810 810 812 813 814 815 817 818 820 821 821 821 821 821 822 822 824 827 829 827 823 819 818 819 819 819 820 820 821 822 822 822 823 824 824 824 824 824 824 823 823 823 823 821 818
844 844 846 845 844 844 844 844 844 844 844 842 842 840 839 838 836 835 834 832 832 830 829 827 825 823 821 820 819 817 815 813 812 810 809 808 807 806 806 806 806 807 809 810 811 812 814 815 816 818 819 820 820 821 820 821 821 824 826 826 823 819 818 817 818 818 818 817 818 819 819 820 820 821 821 821 822 821 821 821 821 821 821 821 820
844 845 845 844 844 844 844 845 844 844 843 842 841 840 838 837 836 835 833 832 831 829 827 825 824 822 819 817 816 814 812 810 808 807 805 804 803 803 803 804 804 805 807 808 809 810 812 813 814 816 817 818 819 819 819 819 819 821 824 824 822 819 816 816 816 817 816 816 815 816 817 817 818 818 819 819 819 819 819 819 819 819 819 819 818
844 845 844 844 844 844 845 845 845 844 843 842 840 839 837 836 835 833 832 830 829 827 825 822 821 819 817 815 813 811 809 807 806 804 802 801 800 800 801 801 802 803 805 807 808 809 811 812 813 814 815 816 817 817 817 817 818 818 821 822 820 818 815 814 814 815 815 814 813 813 814 815 815 816 816 816 816 816 816 816 816 816 816 816 816
844 844 843 844 844 845 845 845 844 843 842 841 839 838 837 835 834 833 831 829 827 825 824 821 819 817 815 812 810 808 806 804 803 801 799 798 798 798 798 798 800 802 804 806 806 808 809 811 812 813 814 814 815 816 816 816 816 816 818 819 818 816 813 812 812 813 814 813 811 811 811 812 813 813 813 813 813 813 813 813 813 813 813 814 814
843 843 843 844 844 844 845 843 843 842 841 840 838 837 836 835 834 832 831 829 827 825 824 821 819 816 814 811 808 806 804 801 799 798 797 796 795 796 796 798 801 802 804 804 805 807 808 809 810 811 812 813 813 814 814 814 814 814 815 816 816 814 812 810 810 811 812 811 809 808 808 809 810 810 810 811 810 811 811 810 810 811 810 811 811
842 842 842 844 844 844 843 842 842 841 840 840 838 837 836 835 834 832 831 829 827 826 824 821 818 816 813 810 807 805 802 799 797 795 794 794 794 795 796 798 800 801 802 803 804 805 806 807 808 809 810 810 811 812 812 812 812 812 812 813 813 812 810 809 808 809 810 809 807 806 806 806 807 807 807 808 808 808 808 807 807 808 808 808 808
841 841 842 843 842 842 842 841 841 840 839 839 838 837 836 835 834 832 830 829 827 825 823 821 819 816 813 811 807 805 802 800 798 796 795 795 795 795 796 797 799 800 801 801 802 803 804 805 806 807 808 808 809 809 810 810 810 809 810 810 810 809 808 807 806 807 808 807 805 803 803 804 804 804 804 805 805 805 805 805 804 804 805 804 805
840 840 841 841 840 841 841 840 840 840 839 839 838 837 835 834 833 831 830 828 826 824 823 821 819 816 814 811 809 806 804 802 800 799 798 797 797 797 798 798 799 800 800 801 801 802 803 804 804 805 806 806 807 807 808 808 808 807 808 808 807 806 805 804 804 805 805 804 802 801 800 801 801 801 801 802 802 802 802 802 801 802 802 802 802
838 840 839 840 840 840 840 840 840 839 839 838 836 835 834 832 831 830 828 827 825 824 823 821 819 817 814 812 810 808 806 804 802 801 800 800 799 799 799 799 800 800 800 800 801 801 802 802 803 803 804 804 805 805 806 806 806 806 806 805 804 803 802 802 802 802 802 801 799 798 798 798 798 798 798 798 799 799 799 799 799 799 799 799 800
837 839 838 839 839 838 839 839 838 838 837 836 835 833 832 831 830 829 827 826 825 824 822 820 819 817 815 813 811 809 807 805 804 803 802 801 801 800 800 799 799 799 799 799 800 800 800 801 801 802 802 803 803 804 804 804 804 804 804 803 801 800 800 799 799 799 798 797 796 795 795 795 795 795 795 795 796 796 796 796 796 796 797 797 797
837 837 837 838 837 837 838 837 836 836 834 834 833 832 831 830 828 827 826 825 824 823 821 820 818 817 815 813 811 809 808 806 805 804 803 801 801 800 799 799 798 798 798 798 798 799 799 800 800 800 801 801 801 802 802 802 802 802 801 800 799 798 797 796 796 795 794 793 792 792 792 792 792 792 792 793 793 793 793 793 793 794 794 794 794
835 835 835 835 835 835 835 834 834 833 833 833 831 830 830 828 827 826 825 824 823 822 821 819 818 816 814 812 810 809 807 806 805 804 803 802 801 800 799 799 798 798 798 798 798 798 798 798 799 799 799 799 800 800 800 800 800 799 798 797 796 795 794 793 793 792 791 790 790 790 790 789 789 789 789 790 790 790 790 790 790 791 791 791 791
833 833 834 833 833 834 833 833 833 832 832 831 830 829 828 827 826 825 824 823 822 821 820 818 817 815 813 811 809 808 807 805 804 804 803 802 801 800 799 799 798 798 797 797 797 797 797 797 797 798 798 798 798 798 798 798 797 796 795 794 792 792 791 790 789 788 787 787 787 787 787 787 787 787 787 787 787 788 788 787 787 787 787 788 788
831 831 831 831 832 832 831 832 832 831 831 830 829 828 827 825 825 824 823 822 821 820 819 817 815 814 812 810 808 807 806 805 804 803 802 802 801 800 799 799 798 798 797 797 796 796 796 796 796 796 796 796 796 796 796 795 795 794 793 791 789 788 787 786 785 784 783 783 783 783 784 784 784 784 784 784 785 785 785 785 785 785 785 785 785
829 829 829 830 830 830 830 830 830 829 829 828 827 826 825 824 823 822 822 821 819 818 817 815 814 812 810 809 807 806 805 804 803 803 802 801 801 800 799 798 798 797 797 796 796 795 795 795 795 794 794 794 793 793 793 793 792 791 789 788 787 785 783 782 781 780 780 780 780 780 780 781 781 781 781 781 782 782 782 782 782 782 782 782 782
827 827 828 828 828 829 829 828 828 827 827 826 826 824 823 823 822 821 820 819 818 817 815 813 812 810 809 808 806 805 804 803 802 801 801 800 799 799 799 798 797 797 796 795 795 794 794 793 793 792 792 791 791 791 791 790 789 787 786 784 783 782 781 779 778 778 777 777 777 777 777 777 778 778 778 778 778 778 778 778 778 778 778 778 778
825 825 826 827 827 827 826 826 826 825 825 824 824 823 822 822 821 820 819 818 816 815 813 812 810 809 808 806 805 804 803 802 801 800 799 799 798 798 797 796 796 795 794 794 793 792 792 791 791 790 789 789 788 788 787 787 785 784 782 781 780 779 777 776 776 775 775 775 775 775 775 775 775 775 775 775 775 774 774 774 773 773 773 773 773
823 824 824 825 825 825 824 824 824 823 823 823 822 822 821 820 819 818 817 816 814 813 811 810 809 808 807 805 804 803 802 801 800 799 798 797 796 796 795 794 794 793 792 792 791 790 790 789 789 788 787 786 785 785 784 783 782 781 779 777 776 775 774 773 773 773 772 772 772 772 772 772 772 772 772 772 771 770 770 769 769 768 768 768 768
821 822 822 823 823 823 823 822 822 822 821 821 821 820 819 818 818 816 815 814 812 811 810 809 807 807 805 804 804 802 801 800 799 797 796 795 794 793 793 792 791 790 790 789 788 788 787 786 786 785 784 782 782 782 781 780 779 778 776 775 773 772 771 770 769 769 769 769 769 769 769 768 768 768 768 769 768 767 767 765 765 764 764 764 764
819 819 820 821 821 821 821 820 820 820 819 819 819 818 817 817 815 814 813 812 810 809 808 807 806 805 804 803 802 801 800 799 797 796 795 793 793 791 790 790 789 788 787 786 786 785 784 784 783 782 781 779 778 778 777 776 776 775 773 772 770 769 768 767 766 766 766 766 766 766 766 765 764 764 764 765 765 764 763 762 761 761 761 760 759
817 817 818 819 819 819 819 818 818 818 818 818 817 816 816 815 813 813 811 810 808 807 806 806 805 804 803 802 801 800 798 797 795 794 793 792 791 790 788 788 786 785 784 783 783 782 781 780 780 778 778 776 774 774 774 773 772 772 770 769 767 766 765 764 763 763 762 762 762 762 762 761 760 760 760 760 760 760 759 758 758 758 757 756 755
815 816 817 818 817 817 817 816 817 816 816 816 815 814 814 813 812 811 809 808 807 806 805 804 803 802 801 800 799 798 797 795 794 792 791 790 789 787 786 785 784 783 781 780 779 778 777 776 776 775 774 773 770 770 769 769 769 768 767 766 764 763 762 760 760 759 758 758 758 758 758 758 757 756 756 756 755 755 754 754 754 753 752 751 751
814 815 815 815 816 815 815 815 815 815 814 814 813 812 812 810 810 808 807 806 806 804 804 803 801 800 799 798 797 796 795 794 792 790 789 787 786 785 784 783 782 780 779 777 776 775 773 772 771 770 769 769 767 766 765 765 765 764 763 762 761 759 758 757 756 756 755 754 754 754 754 754 753 753 753 752 751 750 750 750 749 748 747 746 746
812 813 813 814 813 813 813 813 813 813 812 812 811 810 809 808 807 806 805 805 804 803 802 800 799 798 797 796 795 794 792 791 790 788 787 785 784 783 781 780 779 777 776 774 773 772 770 767 766 766 764 764 763 762 761 760 760 760 759 759 757 756 755 754 753 752 751 751 750 750 750 749 749 749 749 748 746 746 746 745 744 744 743 742 742
811 811 811 812 812 812 812 811 811 811 810 809 809 808 807 806 805 804 803 802 802 800 799 798 797 795 794 793 792 791 790 789 787 786 784 782 781 780 779 778 776 774 773 771 770 769 767 764 762 761 760 759 758 758 757 756 755 755 755 754 753 752 751 751 749 748 747 747 746 745 745 745 745 745 744 744 743 742 742 741 740 740 739 737 737
809 809 809 810 810 810 810 809 809 809 808 807 806 805 805 804 803 802 801 800 799 798 797 796 794 793 792 791 790 789 788 786 785 784 782 780 779 778 776 775 774 772 770 768 766 766 764 761 759 757 755 755 754 753 753 752 751 751 750 750 749 748 747 747 746 744 744 743 742 742 741 741 742 741 740 740 739 738 738 737 737 737 736 734 734
806 807 807 808 808 807 808 807 807 807 806 805 804 803 802 802 800 800 799 797 797 796 795 794 792 791 790 789 788 787 785 784 783 781 779 778 776 775 774 772 771 770 768 765 764 763 761 759 756 754 752 751 750 749 749 748 747 747 746 746 745 744 743 743 742 741 740 739 738 738 738 738 738 737 736 735 735 734 735 734 734 735 734 732 733
804 805 804 805 805 805 805 805 804 804 803 803 803 801 800 799 798 798 797 795 795 794 792 792 791 789 788 787 785 784 783 782 780 779 777 775 773 772 771 769 768 767 765 763 761 759 759 757 754 752 749 747 747 746 745 744 744 743 742 742 742 741 740 739 737 736 735 734 734 734 734 733 733 732 732 731 731 731 731 731 731 731 731 730 730
802 802 803 803 803 802 803 802 802 802 801 801 801 800 798 797 796 796 795 794 793 792 791 790 789 787 786 785 783 781 780 778 777 776 774 773 771 769 768 766 765 763 761 760 758 756 755 754 751 749 747 745 744 743 742 741 741 740 739 738 738 737 735 734 733 731 730 730 729 729 729 728 728 728 728 727 727 727 727 727 728 728 727 727 727
800 800 801 801 801 801 801 800 799 799 799 799 798 797 797 796 794 794 793 792 791 790 789 788 787 785 784 782 780 778 776 775 774 773 771 770 769 767 765 763 761 760 758 756 754 753 752 750 748 746 744 743 741 740 739 738 737 736 735 734 733 732 731 730 728 727 726 725 725 725 724 724 724 724 723 723 723 723 724 724 724 724 723 723 723
798 798 799 799 799 799 798 798 797 797 797 797 796 795 795 794 793 792 791 790 789 788 787 786 785 783 781 780 778 776 774 772 771 769 768 767 765 764 762 760 758 757 756 753 751 749 747 746 744 743 741 739 737 736 735 734 733 732 731 730 729 728 727 726 724 723 722 722 721 720 720 719 719 719 718 719 719 719 719 720 719 720 720 719 720
796 797 797 797 797 797 796 796 795 795 795 794 793 793 793 792 791 790 789 788 787 786 784 783 782 780 779 777 775 774 772 770 768 766 765 763 762 761 758 756 754 753 752 750 748 745 743 741 740 739 737 735 733 731 731 730 729 728 726 725 724 723 722 721 720 719 719 718 716 716 715 714 714 714 714 714 714 714 715 715 715 715 715 716 716
794 795 794 795 795 794 794 793 793 793 792 791 791 790 790 789 789 788 787 786 784 783 782 780 779 778 776 774 773 771 769 768 766 764 761 759 757 756 755 753 751 749 749 748 745 742 739 738 736 733 732 731 728 726 726 726 725 724 723 721 720 719 717 716 716 716 715 713 711 711 710 710 710 709 709 709 709 709 710 710 710 711 711 711 712
792 792 792 792 792 792 792 791 790 790 790 788 788 787 787 787 786 785 785 784 782 781 779 777 776 775 773 771 770 768 766 765 763 761 759 756 752 750 749 749 748 746 744 743 742 740 738 736 733 731 729 727 725 723 723 722 721 719 718 717 716 715 714 713 713 712 711 708 707 706 705 705 705 705 704 704 704 705 705 705 706 707 707 707 708